Change the Weather History Date:

Tuesday, November 27, 2012

  Actual Average Record
Temperature  
Mean Temperature 36 °F -  
Max Temperature 42 °F 46 °F 59 °F (2007)
Min Temperature 30 °F 34 °F 23 °F (1974)
Degree Days  
Heating Degree Days 29    
Moisture  
Dew Point 32 °F    
Average Humidity 82    
Maximum Humidity 93    
Minimum Humidity 60    
Precipitation  
Precipitation 0.15 in - - ()
Sea Level Pressure  
Sea Level Pressure 30.27 in    
Wind  
Wind Speed 2 mph (NE)    
Max Wind Speed 9 mph    
Max Gust Speed -    
Visibility 10 miles    
Events Rain    
Averages and records for this station are not official NWS values.
T = Trace of Precipitation, MM = Missing Value Source: NWS Daily Summary

Daily Weather History Graph

Daily Weather History Graph

Search for Another Location

Airport or City:

Trip Planner

Search our weather history database for the weather conditions in past years. The results will help you decide how hot, cold, wet, or windy it might be!

Date:

Astronomy

Nov. 27, 2012 Rise Set
Actual Time 6:43 AM EST 4:11 PM EST
Civil Twilight 6:12 AM EST 4:42 PM EST
Nautical Twilight 5:38 AM EST 5:16 PM EST
Astronomical Twilight 5:05 AM EST 5:50 PM EST
Moon 3:41 PM EST (11/27) 5:45 AM EST (11/27)
Length of Visible Light 10h 29m
Length of Day
9h 27m
Waxing Gibbous, 99% of the Moon is Illuminated
Nov 27
Waxing Gibbous
Nov 28
Full
Dec 6
Last Quarter
Dec 13
New
Dec 20
First Quarter

Hourly Weather History & Observations

Time (EST) Temp. Windchill Dew Point Humidity Pressure Visibility Wind Dir Wind Speed Gust Speed Precip Events Conditions
12:52 AM 33.1 °F - 25.0 °F 72% 30.27 in 10.0 mi Calm Calm - N/A   Clear
1:52 AM 33.1 °F - 26.1 °F 75% 30.28 in 10.0 mi Calm Calm - N/A   Clear
2:52 AM 30.0 °F - 25.0 °F 82% 30.30 in 10.0 mi Calm Calm - N/A   Clear
3:52 AM 30.0 °F - 26.1 °F 85% 30.29 in 10.0 mi Calm Calm - N/A   Partly Cloudy
4:52 AM 30.0 °F - 26.1 °F 85% 30.30 in 10.0 mi Calm Calm - N/A   Partly Cloudy
5:52 AM 30.0 °F - 26.1 °F 85% 30.30 in 10.0 mi Calm Calm - N/A   Mostly Cloudy
6:52 AM 32.0 °F - 28.0 °F 85% 30.31 in 10.0 mi Calm Calm - N/A   Overcast
7:52 AM 35.1 °F - 30.0 °F 82% 30.32 in 10.0 mi Calm Calm - N/A   Overcast
8:52 AM 39.9 °F - 32.0 °F 73% 30.34 in 10.0 mi Calm Calm - N/A   Scattered Clouds
9:52 AM 42.1 °F - 30.0 °F 62% 30.34 in 10.0 mi Calm Calm - N/A   Mostly Cloudy
10:52 AM 42.1 °F - 28.9 °F 60% 30.33 in 10.0 mi Calm Calm - N/A   Overcast
11:52 AM 39.9 °F 36.7 °F 28.9 °F 65% 30.33 in 10.0 mi WSW 4.6 mph - 0.00 in Rain Light Rain
12:22 PM 39.2 °F - 30.2 °F 70% 30.32 in 10.0 mi Calm Calm - 0.00 in Rain Light Rain
12:45 PM 39.2 °F 37.0 °F 32.0 °F 75% 30.31 in 10.0 mi NNE 3.5 mph - 0.00 in Rain Light Rain
12:52 PM 39.0 °F - 32.0 °F 76% 30.32 in 10.0 mi Calm Calm - 0.00 in   Overcast
1:52 PM 37.9 °F 35.5 °F 32.0 °F 79% 30.30 in 10.0 mi NE 3.5 mph - 0.00 in Rain Light Rain
2:52 PM 37.9 °F 35.5 °F 33.1 °F 83% 30.28 in 10.0 mi NE 3.5 mph - 0.01 in Rain Light Rain
3:01 PM 37.4 °F - 33.8 °F 87% 30.27 in 10.0 mi Calm Calm - 0.00 in Rain Light Rain
3:17 PM 37.4 °F 34.9 °F 33.8 °F 87% 30.27 in 10.0 mi ENE 3.5 mph - 0.01 in Rain Light Rain
3:52 PM 37.9 °F - 34.0 °F 86% 30.28 in 7.0 mi Calm Calm - 0.02 in Rain Light Rain
4:09 PM 37.4 °F 33.8 °F 33.8 °F 87% 30.27 in 9.0 mi ENE 4.6 mph - 0.01 in Rain Light Rain
4:52 PM 37.9 °F 35.5 °F 35.1 °F 89% 30.27 in 10.0 mi ENE 3.5 mph - 0.02 in Rain Light Rain
6:19 PM 39.2 °F 35.9 °F 35.6 °F 87% 30.25 in 10.0 mi ENE 4.6 mph - 0.01 in Rain Light Rain
6:28 PM 39.2 °F 35.0 °F 35.6 °F 87% 30.25 in 10.0 mi ENE 5.8 mph - 0.01 in Rain Light Rain
6:52 PM 39.0 °F 34.8 °F 36.0 °F 89% 30.25 in 10.0 mi ENE 5.8 mph - 0.01 in Rain Light Rain
7:14 PM 39.2 °F 35.0 °F 35.6 °F 87% 30.23 in 10.0 mi ENE 5.8 mph - 0.01 in Rain Light Rain
7:52 PM 39.9 °F 35.1 °F 36.0 °F 86% 30.24 in 10.0 mi ENE 6.9 mph - 0.01 in   Overcast
8:52 PM 39.9 °F 34.5 °F 36.0 °F 86% 30.21 in 10.0 mi NE 8.1 mph - 0.00 in Rain Light Rain
9:52 PM 41.0 °F 35.8 °F 36.0 °F 82% 30.20 in 10.0 mi NE 8.1 mph - 0.01 in Rain Light Rain
10:19 PM 39.2 °F 33.6 °F 37.4 °F 93% 30.19 in 9.0 mi ENE 8.1 mph - 0.01 in Rain Light Rain
10:52 PM 39.9 °F 33.9 °F 37.0 °F 89% 30.20 in 7.0 mi NE 9.2 mph - 0.04 in Rain Light Rain
11:17 PM 39.2 °F 33.6 °F 37.4 °F 93% 30.18 in 8.0 mi NE 8.1 mph - 0.02 in Rain Light Rain
11:52 PM 39.9 °F 35.1 °F 37.0 °F 89% 30.18 in 10.0 mi NE 6.9 mph - 0.03 in Rain Light Rain